Location: Brede
(50.9167°N, 0.6000°E)
Time: 16:55:28
(UTC+00:00)

Nadezhda 2 Rocket - Pass Details

Date: 08 August 2020
Orbit: 947 x 1012 km, 83.0° (Epoch: 23 September)

Event Time Altitude Azimuth Distance (km) Brightness Sun altitude
Rises 03:13:43 0° 349° (N) 3,706 8.0 -11.2°
Reaches altitude 10° 03:16:16 10° 349° (NNW) 2,744 7.3 -10.9°
Maximum altitude 03:22:33 81° 263° (W) 986 4.5 -10.2°
Drops below altitude 10° 03:28:41 10° 177° (S) 2,682 6.5 -9.5°
Sets 03:31:09 0° 176° (S) 3,617 7.1 -9.2°
